{"data":{"norad_id":63348,"intl_designator":"2025-059E","name":"YUNYAO-1 47","alt_names":[],"object_type":"PAYLOAD","status":"ACTIVE","operator":null,"country":"PRC","launch_date":"2025-03-21","launch_site_code":"JSC","launch_vehicle":null,"mission":null,"orbit_class":"UNKNOWN","rcs_meters":null,"size_class":null,"mass_kg":null,"dimensions":null,"purposes":[],"wikipedia_slug":null,"has_3d_model":false,"image_url":null,"decayed_at":null,"tle_current":{"epoch":"2026-09-22T22:36:13.665312Z","epoch_age_seconds":95262,"freshness":"FRESH","line1":"1 63348U 25059E   26265.94182483  .00002098  00000+0  12683-3 0  9996","line2":"2 63348  97.6120  86.8972 0015729 177.4870 182.6442 15.11678836 83069","mean_motion":15.11678836,"eccentricity":0.0015729,"inclination_deg":97.612,"raan_deg":86.8972,"arg_perigee_deg":177.487,"mean_anomaly_deg":182.6442,"bstar":0.00012683,"rev_number":8306,"period_min":95.258329064812,"perigee_km":520.21227809241,"apogee_km":541.94729225521,"semimajor_km":6909.2167851738,"source":"CELESTRAK","updated_at":"2026-09-23T09:00:22.029427Z"}}}